Time,TemperatureF,DewpointF,PressureIn,WindDirection,WindDirectionDegrees,WindSpeedMPH,WindSpeedGustMPH,Humidity,HourlyPrecipIn,Conditions,Clouds,dailyrainin,SoftwareType,DateUTC
2013-02-27 00:00:00,38.5,29.9,29.55,ESE,122,5.8,5.8,71,0.00,CLR,,0.12,WeatherDisplay:10.37,2013-02-27 05:00:00,
2013-02-27 00:05:00,38.5,29.5,29.55,WNW,302,2.3,0.0,70,0.00,RA,,0.00,WeatherDisplay:10.37,2013-02-27 05:05:00,
2013-02-27 00:10:00,38.5,29.5,29.55,East,83,4.6,4.6,70,0.00,CLR,,0.00,WeatherDisplay:10.37,2013-02-27 05:10:00,
2013-02-27 00:15:00,38.5,29.5,29.55,SE,124,3.5,3.5,70,0.00,CLR,,0.00,WeatherDisplay:10.37,2013-02-27 05:15:00,
2013-02-27 00:20:00,38.7,30.1,29.55,SE,132,5.8,5.8,71,0.00,CLR,,0.00,WeatherDisplay:10.37,2013-02-27 05:20:00,
2013-02-27 00:25:00,38.7,30.1,29.55,SW,230,3.5,0.0,71,0.00,CLR,,0.00,WeatherDisplay:10.37,2013-02-27 05:25:00,
2013-02-27 00:30:00,38.8,30.2,29.55,SSE,150,2.3,0.0,71,0.00,CLR,,0.00,WeatherDisplay:10.37,2013-02-27 05:30:00,
2013-02-27 00:35:00,38.8,30.2,29.55,SE,126,0.0,0.0,71,0.00,CLR,,0.00,WeatherDisplay:10.37,2013-02-27 05:35:00,
2013-02-27 00:40:00,38.8,30.2,29.55,ESE,116,0.0,0.0,71,0.00,CLR,,0.00,WeatherDisplay:10.37,2013-02-27 05:40:00,
2013-02-27 00:45:00,38.7,29.7,29.55,SE,133,3.5,0.0,70,0.00,CLR,,0.00,WeatherDisplay:10.37,2013-02-27 05:45:00,
2013-02-27 00:50:00,38.7,29.7,29.52,West,270,2.3,0.0,70,0.00,CLR,,0.00,WeatherDisplay:10.37,2013-02-27 05:50:00,
2013-02-27 00:55:00,38.7,29.7,29.52,East,83,3.5,0.0,70,0.00,CLR,,0.00,WeatherDisplay:10.37,2013-02-27 05:55:00,
2013-02-27 01:00:00,38.8,29.9,29.52,East,84,0.0,0.0,70,0.00,CLR,,0.00,WeatherDisplay:10.37,2013-02-27 06:00:00,
2013-02-27 01:05:00,38.8,29.9,29.52,East,79,0.0,0.0,70,0.00,CLR,,0.00,WeatherDisplay:10.37,2013-02-27 06:05:00,
2013-02-27 01:10:00,38.8,29.9,29.52,SSE,149,2.3,0.0,70,0.00,CLR,,0.00,WeatherDisplay:10.37,2013-02-27 06:10:00,
2013-02-27 01:15:00,39.0,30.1,29.52,ESE,120,3.5,0.0,70,0.00,CLR,,0.00,WeatherDisplay:10.37,2013-02-27 06:15:00,
2013-02-27 01:20:00,38.8,29.9,29.52,ENE,68,5.8,0.0,70,0.00,CLR,,0.00,WeatherDisplay:10.37,2013-02-27 06:20:00,
2013-02-27 01:25:00,38.8,29.9,29.52,ENE,75,0.0,0.0,70,0.00,CLR,,0.00,WeatherDisplay:10.37,2013-02-27 06:25:00,
2013-02-27 01:30:00,39.0,30.1,29.52,ESE,102,5.8,5.8,70,0.00,CLR,,0.00,WeatherDisplay:10.37,2013-02-27 06:30:00,
2013-02-27 01:35:00,39.2,29.9,29.52,SE,125,3.5,3.5,69,0.00,CLR,,0.00,WeatherDisplay:10.37,2013-02-27 06:35:00,
2013-02-27 01:40:00,39.2,29.9,29.52,SE,130,0.0,0.0,69,0.00,CLR,,0.00,WeatherDisplay:10.37,2013-02-27 06:40:00,
2013-02-27 01:45:00,39.2,29.9,29.52,ESE,119,0.0,0.0,69,0.00,CLR,,0.00,WeatherDisplay:10.37,2013-02-27 06:45:00,
2013-02-27 01:50:00,39.2,29.5,29.52,SE,130,2.7,0.0,68,0.00,CLR,,0.00,WeatherDisplay:10.37,2013-02-27 06:50:00,
2013-02-27 01:55:00,39.2,29.5,29.52,SE,128,2.3,0.0,68,0.00,CLR,,0.00,WeatherDisplay:10.37,2013-02-27 06:55:00,
2013-02-27 02:00:00,39.0,29.7,29.52,SE,130,0.0,0.0,69,0.00,CLR,,0.00,WeatherDisplay:10.37,2013-02-27 07:00:00,
2013-02-27 02:05:00,38.8,29.5,29.52,SE,130,0.0,0.0,69,0.00,CLR,,0.00,WeatherDisplay:10.37,2013-02-27 07:05:00,
2013-02-27 02:10:00,39.2,29.5,29.52,SE,140,2.3,0.0,68,0.00,CLR,,0.00,WeatherDisplay:10.37,2013-02-27 07:10:00,
2013-02-27 02:15:00,39.0,29.7,29.52,SE,127,0.0,0.0,69,0.00,CLR,,0.00,WeatherDisplay:10.37,2013-02-27 07:15:00,
2013-02-27 02:20:00,39.0,29.7,29.52,SE,127,0.0,0.0,69,0.00,CLR,,0.00,WeatherDisplay:10.37,2013-02-27 07:20:00,
2013-02-27 02:25:00,39.2,29.9,29.52,SE,124,0.0,0.0,69,0.00,CLR,,0.00,WeatherDisplay:10.37,2013-02-27 07:25:00,
2013-02-27 02:30:00,39.2,29.5,29.52,ESE,116,3.5,3.5,68,0.00,CLR,,0.00,WeatherDisplay:10.37,2013-02-27 07:30:00,
2013-02-27 02:35:00,39.2,29.5,29.52,ESE,116,0.0,0.0,68,0.00,CLR,,0.00,WeatherDisplay:10.37,2013-02-27 07:35:00,
2013-02-27 02:40:00,39.2,29.5,29.52,WSW,238,0.0,0.0,68,0.00,CLR,,0.00,WeatherDisplay:10.37,2013-02-27 07:40:00,
2013-02-27 02:45:00,39.0,29.7,29.52,WSW,237,0.0,0.0,69,0.00,CLR,,0.00,WeatherDisplay:10.37,2013-02-27 07:45:00,
2013-02-27 02:50:00,39.0,29.7,29.52,ESE,114,0.0,0.0,69,0.00,CLR,,0.00,WeatherDisplay:10.37,2013-02-27 07:50:00,
2013-02-27 02:55:00,38.8,29.5,29.52,SE,128,0.0,0.0,69,0.00,CLR,,0.00,WeatherDisplay:10.37,2013-02-27 07:55:00,
2013-02-27 03:00:00,38.7,29.4,29.52,SE,128,0.0,0.0,69,0.00,CLR,,0.00,WeatherDisplay:10.37,2013-02-27 08:00:00,
2013-02-27 03:05:00,38.7,29.4,29.52,SE,128,0.0,0.0,69,0.00,CLR,,0.00,WeatherDisplay:10.37,2013-02-27 08:05:00,
2013-02-27 03:10:00,38.5,29.2,29.52,SE,131,0.0,0.0,69,0.00,CLR,,0.00,WeatherDisplay:10.37,2013-02-27 08:10:00,
2013-02-27 03:15:00,38.7,29.7,29.52,ESE,116,2.3,0.0,70,0.00,CLR,,0.00,WeatherDisplay:10.37,2013-02-27 08:15:00,
2013-02-27 03:20:00,38.5,29.5,29.52,ESE,116,0.0,0.0,70,0.00,CLR,,0.00,WeatherDisplay:10.37,2013-02-27 08:20:00,
2013-02-27 03:25:00,38.5,29.9,29.52,SE,125,2.3,0.0,71,0.00,CLR,,0.00,WeatherDisplay:10.37,2013-02-27 08:25:00,
2013-02-27 03:30:00,38.5,29.9,29.52,SE,129,2.7,0.0,71,0.00,CLR,,0.00,WeatherDisplay:10.37,2013-02-27 08:30:00,
2013-02-27 03:35:00,38.7,31.1,29.52,ESE,114,3.5,3.5,74,0.00,CLR,,0.00,WeatherDisplay:10.37,2013-02-27 08:35:00,
2013-02-27 03:40:00,38.5,31.2,29.52,WNW,283,2.3,0.0,75,0.00,CLR,,0.00,WeatherDisplay:10.37,2013-02-27 08:40:00,
2013-02-27 03:45:00,38.5,31.2,29.52,WNW,283,0.0,0.0,75,0.00,CLR,,0.00,WeatherDisplay:10.37,2013-02-27 08:45:00,
2013-02-27 03:50:00,38.7,32.4,29.52,ESE,122,2.3,0.0,78,0.00,CLR,,0.00,WeatherDisplay:10.37,2013-02-27 08:50:00,
2013-02-27 03:55:00,38.7,33.0,29.52,West,281,0.0,0.0,80,0.00,CLR,,0.00,WeatherDisplay:10.37,2013-02-27 08:55:00,
2013-02-27 04:00:00,38.7,33.9,29.52,ESE,109,2.3,0.0,83,0.00,CLR,,0.00,WeatherDisplay:10.37,2013-02-27 09:00:00,
2013-02-27 04:05:00,38.8,35.6,29.52,SE,124,5.8,0.0,88,0.00,CLR,,0.00,WeatherDisplay:10.37,2013-02-27 09:05:00,
2013-02-27 04:10:00,38.7,35.7,29.52,SE,126,3.5,3.5,89,0.00,CLR,,0.00,WeatherDisplay:10.37,2013-02-27 09:10:00,
2013-02-27 04:15:00,38.7,36.0,29.52,ESE,121,4.0,4.0,90,0.00,CLR,,0.00,WeatherDisplay:10.37,2013-02-27 09:15:00,
2013-02-27 04:20:00,38.7,36.0,29.52,SE,130,0.0,0.0,90,0.00,CLR,,0.00,WeatherDisplay:10.37,2013-02-27 09:20:00,
2013-02-27 04:25:00,38.7,36.0,29.52,SE,130,0.0,0.0,90,0.00,CLR,,0.00,WeatherDisplay:10.37,2013-02-27 09:25:00,
2013-02-27 04:30:00,38.7,36.0,29.52,SE,130,0.0,0.0,90,0.00,CLR,,0.00,WeatherDisplay:10.37,2013-02-27 09:30:00,
2013-02-27 04:35:00,38.7,36.0,29.52,SE,130,0.0,0.0,90,0.00,CLR,,0.00,WeatherDisplay:10.37,2013-02-27 09:35:00,
2013-02-27 04:40:00,38.7,36.0,29.52,SE,130,0.0,0.0,90,0.00,CLR,,0.00,WeatherDisplay:10.37,2013-02-27 09:40:00,
2013-02-27 04:45:00,38.5,35.8,29.52,SE,130,0.0,0.0,90,0.00,CLR,,0.00,WeatherDisplay:10.37,2013-02-27 09:45:00,
2013-02-27 04:50:00,38.5,35.8,29.52,SE,130,0.0,0.0,90,0.00,CLR,,0.00,WeatherDisplay:10.37,2013-02-27 09:50:00,
2013-02-27 04:55:00,38.3,35.6,29.52,SE,130,0.0,0.0,90,0.00,CLR,,0.00,WeatherDisplay:10.37,2013-02-27 09:55:00,
2013-02-27 05:00:00,38.5,35.8,29.52,SE,130,0.0,0.0,90,0.00,CLR,,0.00,WeatherDisplay:10.37,2013-02-27 10:00:00,
2013-02-27 05:05:00,38.7,36.0,29.52,SE,130,0.0,0.0,90,0.00,CLR,,0.00,WeatherDisplay:10.37,2013-02-27 10:05:00,
2013-02-27 05:10:00,38.7,36.3,29.52,SE,130,0.0,0.0,91,0.00,CLR,,0.00,WeatherDisplay:10.37,2013-02-27 10:10:00,
2013-02-27 05:15:00,38.5,35.8,29.52,SE,130,0.0,0.0,90,0.00,CLR,,0.00,WeatherDisplay:10.37,2013-02-27 10:15:00,
2013-02-27 05:20:00,38.5,35.8,29.55,SE,130,0.0,0.0,90,0.00,CLR,,0.00,WeatherDisplay:10.37,2013-02-27 10:20:00,
2013-02-27 05:25:00,38.5,36.1,29.55,SE,130,0.0,0.0,91,0.00,CLR,,0.00,WeatherDisplay:10.37,2013-02-27 10:25:00,
2013-02-27 05:30:00,38.7,36.3,29.55,SE,130,0.0,0.0,91,0.00,CLR,,0.00,WeatherDisplay:10.37,2013-02-27 10:30:00,
2013-02-27 05:35:00,38.7,36.3,29.55,SE,130,0.0,0.0,91,0.00,CLR,,0.00,WeatherDisplay:10.37,2013-02-27 10:35:00,
2013-02-27 05:40:00,38.7,36.3,29.55,SE,130,0.0,0.0,91,0.00,CLR,,0.00,WeatherDisplay:10.37,2013-02-27 10:40:00,
2013-02-27 05:45:00,38.5,36.1,29.55,SE,130,0.0,0.0,91,0.00,CLR,,0.00,WeatherDisplay:10.37,2013-02-27 10:45:00,
2013-02-27 05:50:00,38.5,36.1,29.55,SE,130,0.0,0.0,91,0.00,CLR,,0.00,WeatherDisplay:10.37,2013-02-27 10:50:00,
2013-02-27 05:55:00,38.7,36.5,29.55,SE,125,0.0,0.0,92,0.00,CLR,,0.00,WeatherDisplay:10.37,2013-02-27 10:55:00,
2013-02-27 06:00:00,38.8,37.0,29.55,ESE,117,0.0,0.0,93,0.00,CLR,,0.00,WeatherDisplay:10.37,2013-02-27 11:00:00,
2013-02-27 06:05:00,38.8,37.0,29.55,ESE,105,0.0,0.0,93,0.00,CLR,,0.00,WeatherDisplay:10.37,2013-02-27 11:05:00,
2013-02-27 06:10:00,38.8,37.3,29.55,SE,130,2.3,0.0,94,0.00,CLR,,0.00,WeatherDisplay:10.37,2013-02-27 11:10:00,
2013-02-27 06:15:00,38.7,37.1,29.55,SE,130,0.0,0.0,94,0.00,CLR,,0.00,WeatherDisplay:10.37,2013-02-27 11:15:00,
2013-02-27 06:20:00,38.7,37.1,29.55,SE,130,0.0,0.0,94,0.00,CLR,,0.00,WeatherDisplay:10.37,2013-02-27 11:20:00,
2013-02-27 06:25:00,38.7,37.1,29.55,SE,130,0.0,0.0,94,0.00,CLR,,0.00,WeatherDisplay:10.37,2013-02-27 11:25:00,
2013-02-27 06:30:00,38.7,37.1,29.55,SE,130,0.0,0.0,94,0.00,CLR,,0.00,WeatherDisplay:10.37,2013-02-27 11:30:00,
2013-02-27 06:35:00,38.5,36.9,29.55,ESE,115,0.0,0.0,94,0.00,CLR,,0.00,WeatherDisplay:10.37,2013-02-27 11:35:00,
2013-02-27 06:40:00,38.5,36.9,29.55,SE,130,0.0,0.0,94,0.00,CLR,,0.00,WeatherDisplay:10.37,2013-02-27 11:40:00,
2013-02-27 06:45:00,38.3,36.7,29.55,SE,130,0.0,0.0,94,0.00,CLR,,0.00,WeatherDisplay:10.37,2013-02-27 11:45:00,
2013-02-27 06:50:00,38.3,36.7,29.55,SE,130,0.0,0.0,94,0.00,CLR,,0.00,WeatherDisplay:10.37,2013-02-27 11:50:00,
2013-02-27 06:55:00,38.3,36.7,29.55,SE,130,0.0,0.0,94,0.00,CLR,,0.00,WeatherDisplay:10.37,2013-02-27 11:55:00,
2013-02-27 07:00:00,38.3,36.7,29.55,SE,130,0.0,0.0,94,0.00,CLR,,0.00,WeatherDisplay:10.37,2013-02-27 12:00:00,
2013-02-27 07:05:00,38.3,37.0,29.58,SE,130,0.0,0.0,95,0.00,CLR,,0.00,WeatherDisplay:10.37,2013-02-27 12:05:00,
2013-02-27 07:10:00,38.3,37.0,29.58,SE,130,0.0,0.0,95,0.00,CLR,,0.00,WeatherDisplay:10.37,2013-02-27 12:10:00,
2013-02-27 07:15:00,38.5,37.2,29.58,SE,130,0.0,0.0,95,0.00,CLR,,0.00,WeatherDisplay:10.37,2013-02-27 12:15:00,
2013-02-27 07:20:00,38.5,37.2,29.58,SE,130,0.0,0.0,95,0.00,CLR,,0.00,WeatherDisplay:10.37,2013-02-27 12:20:00,
2013-02-27 07:25:00,38.5,37.2,29.58,SE,130,0.0,0.0,95,0.00,CLR,,0.00,WeatherDisplay:10.37,2013-02-27 12:25:00,
2013-02-27 07:30:00,38.5,37.4,29.58,SE,130,0.0,0.0,96,0.00,CLR,,0.00,WeatherDisplay:10.37,2013-02-27 12:30:00,
2013-02-27 07:35:00,38.7,37.6,29.58,SE,130,0.0,0.0,96,0.00,CLR,,0.00,WeatherDisplay:10.37,2013-02-27 12:35:00,
2013-02-27 07:41:00,38.8,37.8,29.58,SSW,205,0.0,0.0,96,0.00,CLR,,0.00,WeatherDisplay:10.37,2013-02-27 12:41:00,
2013-02-27 07:46:00,38.8,37.8,29.58,NW,315,0.0,0.0,96,0.00,CLR,,0.00,WeatherDisplay:10.37,2013-02-27 12:46:00,
2013-02-27 07:51:00,39.2,38.2,29.58,WSW,245,0.0,0.0,96,0.00,CLR,,0.00,WeatherDisplay:10.37,2013-02-27 12:51:00,
2013-02-27 07:56:00,39.2,38.4,29.58,SSW,210,2.3,2.7,97,0.00,CLR,,0.00,WeatherDisplay:10.37,2013-02-27 12:56:00,
2013-02-27 08:01:00,39.2,38.4,29.58,SE,136,0.0,0.0,97,0.00,CLR,,0.00,WeatherDisplay:10.37,2013-02-27 13:01:00,
2013-02-27 08:06:00,39.4,38.6,29.58,SE,124,0.0,0.0,97,0.00,CLR,,0.00,WeatherDisplay:10.37,2013-02-27 13:06:00,
2013-02-27 08:11:00,39.4,38.6,29.58,SSW,196,2.3,0.0,97,0.00,CLR,,0.00,WeatherDisplay:10.37,2013-02-27 13:11:00,
2013-02-27 08:16:00,39.4,38.3,29.58,South,182,3.5,0.0,96,0.00,CLR,,0.00,WeatherDisplay:10.37,2013-02-27 13:16:00,
2013-02-27 08:21:00,39.4,38.1,29.61,ESE,106,0.0,0.0,95,0.00,CLR,,0.00,WeatherDisplay:10.37,2013-02-27 13:21:00,
2013-02-27 08:26:00,39.6,38.2,29.61,SW,227,0.0,0.0,95,0.00,CLR,,0.00,WeatherDisplay:10.37,2013-02-27 13:26:00,
2013-02-27 08:31:00,39.6,38.2,29.61,SW,222,2.3,0.0,95,0.00,CLR,,0.00,WeatherDisplay:10.37,2013-02-27 13:31:00,
2013-02-27 08:36:00,39.4,38.1,29.61,West,266,0.0,0.0,95,0.00,CLR,,0.00,WeatherDisplay:10.37,2013-02-27 13:36:00,
2013-02-27 08:41:00,39.6,38.2,29.61,West,266,0.0,0.0,95,0.00,CLR,,0.00,WeatherDisplay:10.37,2013-02-27 13:41:00,
2013-02-27 08:46:00,39.7,38.4,29.61,SSE,163,2.3,0.0,95,0.00,CLR,,0.00,WeatherDisplay:10.37,2013-02-27 13:46:00,
2013-02-27 08:52:00,39.7,38.4,29.61,SSW,210,0.0,0.0,95,0.00,CLR,,0.00,WeatherDisplay:10.37,2013-02-27 13:52:00,
2013-02-27 08:57:00,40.3,39.0,29.61,SE,137,3.1,0.0,95,0.00,CLR,,0.00,WeatherDisplay:10.37,2013-02-27 13:57:00,
2013-02-27 09:02:00,40.5,38.9,29.61,SW,226,0.0,0.0,94,0.00,CLR,,0.00,WeatherDisplay:10.37,2013-02-27 14:02:00,
2013-02-27 09:07:00,41.0,39.4,29.61,NE,34,0.0,0.0,94,0.00,CLR,,0.00,WeatherDisplay:10.37,2013-02-27 14:07:00,
2013-02-27 09:12:00,41.7,39.8,29.61,SSE,152,3.1,0.0,93,0.00,CLR,,0.00,WeatherDisplay:10.37,2013-02-27 14:12:00,
2013-02-27 09:17:00,41.2,36.1,29.61,WNW,299,3.5,0.0,82,0.00,CLR,,0.00,WeatherDisplay:10.37,2013-02-27 14:17:00,
2013-02-27 09:22:00,41.2,33.5,29.61,NW,319,2.3,0.0,74,0.00,CLR,,0.00,WeatherDisplay:10.37,2013-02-27 14:22:00,
2013-02-27 09:27:00,41.5,32.5,29.61,SSE,153,3.5,0.0,70,0.00,CLR,,0.00,WeatherDisplay:10.37,2013-02-27 14:27:00,
2013-02-27 09:32:00,41.7,32.3,29.61,East,99,0.0,0.0,69,0.00,CLR,,0.00,WeatherDisplay:10.37,2013-02-27 14:32:00,
2013-02-27 09:37:00,42.4,32.6,29.61,SE,134,5.8,5.8,68,0.00,CLR,,0.00,WeatherDisplay:10.37,2013-02-27 14:37:00,
2013-02-27 09:42:00,43.5,32.5,29.61,WNW,285,2.3,0.0,65,0.00,CLR,,0.00,WeatherDisplay:10.37,2013-02-27 14:42:00,
2013-02-27 09:47:00,44.8,32.5,29.61,NNW,345,3.5,0.0,62,0.00,CLR,,0.00,WeatherDisplay:10.37,2013-02-27 14:47:00,
2013-02-27 09:52:00,44.4,31.8,29.61,SW,228,3.5,3.5,61,0.00,CLR,,0.00,WeatherDisplay:10.37,2013-02-27 14:52:00,
2013-02-27 09:57:00,43.7,30.7,29.61,West,268,2.3,0.0,60,0.00,CLR,,0.00,WeatherDisplay:10.37,2013-02-27 14:57:00,
2013-02-27 10:02:00,43.7,30.3,29.61,SE,124,3.5,0.0,59,0.00,CLR,,0.00,WeatherDisplay:10.37,2013-02-27 15:02:00,
2013-02-27 10:07:00,45.0,31.1,29.61,WSW,249,2.3,0.0,58,0.00,CLR,,0.00,WeatherDisplay:10.37,2013-02-27 15:07:00,
2013-02-27 10:12:00,43.5,29.7,29.61,SSE,165,4.6,4.6,58,0.00,CLR,,0.00,WeatherDisplay:10.37,2013-02-27 15:12:00,
2013-02-27 10:17:00,42.6,28.9,29.61,ESE,111,2.3,0.0,58,0.00,CLR,,0.00,WeatherDisplay:10.37,2013-02-27 15:17:00,
2013-02-27 10:22:00,41.9,27.3,29.61,WSW,256,3.5,0.0,56,0.00,CLR,,0.00,WeatherDisplay:10.37,2013-02-27 15:22:00,
2013-02-27 10:27:00,41.5,26.6,29.61,NW,324,2.3,0.0,55,0.00,CLR,,0.00,WeatherDisplay:10.37,2013-02-27 15:27:00,
2013-02-27 10:32:00,41.7,25.8,29.61,WNW,293,3.5,0.0,53,0.00,CLR,,0.00,WeatherDisplay:10.37,2013-02-27 15:32:00,
2013-02-27 10:37:00,41.5,25.2,29.61,NNW,327,3.5,0.0,52,0.00,CLR,,0.00,WeatherDisplay:10.37,2013-02-27 15:37:00,
2013-02-27 10:42:00,41.4,25.0,29.61,SE,124,4.6,0.0,52,0.00,CLR,,0.00,WeatherDisplay:10.37,2013-02-27 15:42:00,
2013-02-27 10:47:00,40.1,25.6,29.61,SSW,197,3.5,3.5,56,0.00,CLR,,0.00,WeatherDisplay:10.37,2013-02-27 15:47:00,
2013-02-27 10:52:00,39.7,26.6,29.61,SE,131,2.3,0.0,59,0.00,CLR,,0.00,WeatherDisplay:10.37,2013-02-27 15:52:00,
2013-02-27 10:57:00,39.9,25.9,29.61,SE,137,3.5,3.5,57,0.00,CLR,,0.00,WeatherDisplay:10.37,2013-02-27 15:57:00,
2013-02-27 11:02:00,42.4,27.4,29.61,SW,224,0.0,0.0,55,0.00,CLR,,0.00,WeatherDisplay:10.37,2013-02-27 16:02:00,
2013-02-27 11:07:00,46.2,29.5,29.61,East,81,3.5,0.0,52,0.00,CLR,,0.00,WeatherDisplay:10.37,2013-02-27 16:07:00,
2013-02-27 11:12:00,48.2,29.9,29.61,NW,322,0.0,0.0,49,0.00,CLR,,0.00,WeatherDisplay:10.37,2013-02-27 16:12:00,
2013-02-27 11:17:00,46.2,28.1,29.61,South,170,2.7,2.7,49,0.00,CLR,,0.00,WeatherDisplay:10.37,2013-02-27 16:17:00,
2013-02-27 11:22:00,44.2,26.3,29.61,SSW,203,3.5,3.5,49,0.00,CLR,,0.00,WeatherDisplay:10.37,2013-02-27 16:22:00,
2013-02-27 11:27:00,43.3,24.9,29.61,SW,220,0.0,0.0,48,0.00,CLR,,0.00,WeatherDisplay:10.37,2013-02-27 16:27:00,
2013-02-27 11:32:00,43.5,25.1,29.61,SW,228,2.3,0.0,48,0.00,CLR,,0.00,WeatherDisplay:10.37,2013-02-27 16:32:00,
2013-02-27 11:37:00,43.3,24.9,29.61,NNE,27,2.3,0.0,48,0.00,CLR,,0.00,WeatherDisplay:10.37,2013-02-27 16:37:00,
2013-02-27 11:42:00,43.0,24.6,29.61,ESE,114,2.3,0.0,48,0.00,CLR,,0.00,WeatherDisplay:10.37,2013-02-27 16:42:00,
2013-02-27 11:47:00,43.2,23.2,29.61,WSW,243,3.5,0.0,45,0.00,CLR,,0.00,WeatherDisplay:10.37,2013-02-27 16:47:00,
2013-02-27 11:52:00,44.2,24.2,29.61,WNW,289,3.5,3.5,45,0.00,CLR,,0.00,WeatherDisplay:10.37,2013-02-27 16:52:00,
2013-02-27 11:57:00,44.2,23.1,29.61,WSW,254,2.3,0.0,43,0.00,CLR,,0.00,WeatherDisplay:10.37,2013-02-27 16:57:00,
2013-02-27 12:02:00,43.7,22.6,29.61,SE,142,0.0,0.0,43,0.00,CLR,,0.00,WeatherDisplay:10.37,2013-02-27 17:02:00,
2013-02-27 12:07:00,43.3,22.3,29.61,NNW,328,5.8,5.8,43,0.00,CLR,,0.00,WeatherDisplay:10.37,2013-02-27 17:07:00,
2013-02-27 12:12:00,43.0,22.0,29.61,South,186,0.0,0.0,43,0.00,CLR,,0.00,WeatherDisplay:10.37,2013-02-27 17:12:00,
2013-02-27 12:17:00,43.0,22.0,29.61,WNW,295,0.0,0.0,43,0.00,CLR,,0.00,WeatherDisplay:10.37,2013-02-27 17:17:00,
2013-02-27 12:22:00,41.9,21.0,29.61,West,267,4.6,4.6,43,0.00,CLR,,0.00,WeatherDisplay:10.37,2013-02-27 17:22:00,
2013-02-27 12:27:00,40.6,22.9,29.61,SE,143,0.0,0.0,49,0.00,CLR,,0.00,WeatherDisplay:10.37,2013-02-27 17:27:00,
2013-02-27 12:32:00,40.3,23.1,29.61,WNW,299,0.0,0.0,50,0.00,CLR,,0.00,WeatherDisplay:10.37,2013-02-27 17:32:00,
2013-02-27 12:37:00,40.3,24.9,29.61,SSE,151,2.3,0.0,54,0.00,CLR,,0.00,WeatherDisplay:10.37,2013-02-27 17:37:00,
2013-02-27 12:42:00,39.9,25.5,29.61,SSE,168,3.5,0.0,56,0.00,CLR,,0.00,WeatherDisplay:10.37,2013-02-27 17:42:00,
2013-02-27 12:47:00,39.7,26.2,29.61,WSW,237,0.0,0.0,58,0.00,CLR,,0.00,WeatherDisplay:10.37,2013-02-27 17:47:00,
2013-02-27 12:52:00,39.7,27.0,29.61,SE,134,2.2,0.0,60,0.00,CLR,,0.00,WeatherDisplay:10.37,2013-02-27 17:52:00,
2013-02-27 12:57:00,39.7,27.4,29.61,NNW,330,3.5,0.0,61,0.00,CLR,,0.00,WeatherDisplay:10.37,2013-02-27 17:57:00,
2013-02-27 13:02:00,39.7,27.4,29.61,ESE,116,0.0,0.0,61,0.00,CLR,,0.00,WeatherDisplay:10.37,2013-02-27 18:02:00,
2013-02-27 13:07:00,39.9,27.5,29.61,ESE,116,0.0,0.0,61,0.00,CLR,,0.00,WeatherDisplay:10.37,2013-02-27 18:07:00,
2013-02-27 13:12:00,39.9,27.5,29.61,West,263,0.0,0.0,61,0.00,CLR,,0.00,WeatherDisplay:10.37,2013-02-27 18:12:00,
2013-02-27 13:17:00,39.9,27.1,29.61,SSE,154,0.0,0.0,60,0.00,CLR,,0.00,WeatherDisplay:10.37,2013-02-27 18:17:00,
2013-02-27 13:22:00,39.6,26.8,29.61,ESE,119,2.3,2.3,60,0.00,CLR,,0.00,WeatherDisplay:10.37,2013-02-27 18:22:00,
2013-02-27 13:27:00,39.4,26.2,29.61,SE,140,2.3,0.0,59,0.00,CLR,,0.00,WeatherDisplay:10.37,2013-02-27 18:27:00,
2013-02-27 13:32:00,39.4,26.6,29.61,SE,139,0.0,0.0,60,0.00,CLR,,0.00,WeatherDisplay:10.37,2013-02-27 18:32:00,
2013-02-27 13:37:00,39.2,26.1,29.61,ESE,119,2.3,0.0,59,0.00,CLR,,0.00,WeatherDisplay:10.37,2013-02-27 18:37:00,
2013-02-27 13:42:00,39.2,26.1,29.61,NNW,340,0.0,0.0,59,0.00,CLR,,0.00,WeatherDisplay:10.37,2013-02-27 18:42:00,
2013-02-27 13:47:00,39.2,26.1,29.61,SSW,208,2.3,0.0,59,0.00,CLR,,0.00,WeatherDisplay:10.37,2013-02-27 18:47:00,
2013-02-27 13:52:00,39.0,26.3,29.61,NW,307,0.0,0.0,60,0.00,CLR,,0.00,WeatherDisplay:10.37,2013-02-27 18:52:00,
2013-02-27 13:57:00,39.0,26.3,29.61,WSW,239,0.0,0.0,60,0.00,CLR,,0.00,WeatherDisplay:10.37,2013-02-27 18:57:00,
2013-02-27 14:02:00,39.4,26.6,29.61,WSW,255,0.0,0.0,60,0.00,CLR,,0.00,WeatherDisplay:10.37,2013-02-27 19:02:00,
2013-02-27 14:07:00,39.7,26.6,29.61,SW,229,0.0,0.0,59,0.00,CLR,,0.00,WeatherDisplay:10.37,2013-02-27 19:07:00,
2013-02-27 14:12:00,39.9,26.7,29.61,East,85,2.3,0.0,59,0.00,CLR,,0.00,WeatherDisplay:10.37,2013-02-27 19:12:00,
2013-02-27 14:17:00,39.9,26.3,29.61,SSE,165,0.0,0.0,58,0.00,CLR,,0.00,WeatherDisplay:10.37,2013-02-27 19:17:00,
2013-02-27 14:22:00,40.3,26.7,29.58,SE,140,2.3,0.0,58,0.00,CLR,,0.00,WeatherDisplay:10.37,2013-02-27 19:22:00,
2013-02-27 14:27:00,40.3,26.7,29.58,SSW,198,0.0,0.0,58,0.00,CLR,,0.00,WeatherDisplay:10.37,2013-02-27 19:27:00,
2013-02-27 14:32:00,40.5,26.8,29.58,ESE,119,0.0,0.0,58,0.00,CLR,,0.00,WeatherDisplay:10.37,2013-02-27 19:32:00,
2013-02-27 14:37:00,40.5,26.4,29.61,SE,125,0.0,0.0,57,0.00,CLR,,0.00,WeatherDisplay:10.37,2013-02-27 19:37:00,
2013-02-27 14:42:00,40.6,26.2,29.61,SE,145,0.0,0.0,56,0.00,CLR,,0.00,WeatherDisplay:10.37,2013-02-27 19:42:00,
2013-02-27 14:47:00,40.6,25.7,29.61,SW,236,0.0,0.0,55,0.00,CLR,,0.00,WeatherDisplay:10.37,2013-02-27 19:47:00,
2013-02-27 14:52:00,41.0,26.1,29.61,SW,236,0.0,0.0,55,0.00,CLR,,0.00,WeatherDisplay:10.37,2013-02-27 19:52:00,
2013-02-27 14:57:00,41.2,25.8,29.61,SW,236,0.0,0.0,54,0.00,CLR,,0.00,WeatherDisplay:10.37,2013-02-27 19:57:00,
2013-02-27 15:02:00,41.4,25.5,29.61,SSW,208,0.0,0.0,53,0.00,CLR,,0.00,WeatherDisplay:10.37,2013-02-27 20:02:00,
2013-02-27 15:07:00,41.4,25.5,29.61,West,263,0.0,0.0,53,0.00,CLR,,0.00,WeatherDisplay:10.37,2013-02-27 20:07:00,
2013-02-27 15:12:00,41.0,25.6,29.61,WNW,289,0.0,0.0,54,0.00,CLR,,0.00,WeatherDisplay:10.37,2013-02-27 20:12:00,
2013-02-27 15:17:00,41.0,26.1,29.61,WNW,289,0.0,0.0,55,0.00,CLR,,0.00,WeatherDisplay:10.37,2013-02-27 20:17:00,
2013-02-27 15:22:00,41.0,25.6,29.61,WNW,286,0.0,0.0,54,0.00,CLR,,0.00,WeatherDisplay:10.37,2013-02-27 20:22:00,
2013-02-27 15:27:00,41.2,25.8,29.61,WSW,255,0.0,0.0,54,0.00,CLR,,0.00,WeatherDisplay:10.37,2013-02-27 20:27:00,
2013-02-27 15:32:00,42.1,26.2,29.61,WSW,255,0.0,0.0,53,0.00,CLR,,0.00,WeatherDisplay:10.37,2013-02-27 20:32:00,
2013-02-27 15:37:00,42.8,25.9,29.61,WSW,255,0.0,0.0,51,0.00,CLR,,0.00,WeatherDisplay:10.37,2013-02-27 20:37:00,
2013-02-27 15:42:00,42.8,25.9,29.61,South,169,0.0,0.0,51,0.00,CLR,,0.00,WeatherDisplay:10.37,2013-02-27 20:42:00,
2013-02-27 15:47:00,42.6,25.3,29.61,South,171,0.0,0.0,50,0.00,CLR,,0.00,WeatherDisplay:10.37,2013-02-27 20:47:00,
2013-02-27 15:52:00,41.5,24.7,29.61,East,83,0.0,0.0,51,0.00,CLR,,0.00,WeatherDisplay:10.37,2013-02-27 20:52:00,
2013-02-27 15:57:00,40.5,24.7,29.61,ESE,120,0.0,0.0,53,0.00,CLR,,0.00,WeatherDisplay:10.37,2013-02-27 20:57:00,
2013-02-27 16:02:00,40.3,26.7,29.61,ESE,120,0.0,0.0,58,0.00,CLR,,0.00,WeatherDisplay:10.37,2013-02-27 21:02:00,
2013-02-27 16:07:00,40.1,26.9,29.61,ESE,104,0.0,0.0,59,0.00,CLR,,0.00,WeatherDisplay:10.37,2013-02-27 21:07:00,
2013-02-27 16:12:00,39.9,27.1,29.61,ESE,104,0.0,0.0,60,0.00,CLR,,0.00,WeatherDisplay:10.37,2013-02-27 21:12:00,
2013-02-27 16:17:00,39.7,27.0,29.61,ESE,104,0.0,0.0,60,0.00,CLR,,0.00,WeatherDisplay:10.37,2013-02-27 21:17:00,
2013-02-27 16:22:00,39.6,26.8,29.61,WSW,243,2.3,0.0,60,0.00,CLR,,0.00,WeatherDisplay:10.37,2013-02-27 21:22:00,
2013-02-27 16:27:00,39.6,27.2,29.61,WSW,243,0.0,0.0,61,0.00,CLR,,0.00,WeatherDisplay:10.37,2013-02-27 21:27:00,
2013-02-27 16:32:00,39.4,27.0,29.61,WSW,243,0.0,0.0,61,0.00,CLR,,0.00,WeatherDisplay:10.37,2013-02-27 21:32:00,
2013-02-27 16:37:00,39.4,27.0,29.61,WSW,243,0.0,0.0,61,0.00,CLR,,0.00,WeatherDisplay:10.37,2013-02-27 21:37:00,
2013-02-27 16:42:00,39.6,27.2,29.61,West,279,0.0,0.0,61,0.00,CLR,,0.00,WeatherDisplay:10.37,2013-02-27 21:42:00,
2013-02-27 16:47:00,39.4,26.6,29.61,West,279,0.0,0.0,60,0.00,CLR,,0.00,WeatherDisplay:10.37,2013-02-27 21:47:00,
2013-02-27 16:52:00,39.6,27.2,29.61,West,279,0.0,0.0,61,0.00,CLR,,0.00,WeatherDisplay:10.37,2013-02-27 21:52:00,
2013-02-27 16:57:00,39.7,27.4,29.61,West,280,0.0,0.0,61,0.00,CLR,,0.00,WeatherDisplay:10.37,2013-02-27 21:57:00,
2013-02-27 17:02:00,39.7,27.0,29.61,WNW,283,0.0,0.0,60,0.00,CLR,,0.00,WeatherDisplay:10.37,2013-02-27 22:02:00,
2013-02-27 17:07:00,39.7,27.0,29.64,West,280,0.0,0.0,60,0.00,CLR,,0.00,WeatherDisplay:10.37,2013-02-27 22:07:00,
2013-02-27 17:12:00,39.7,27.0,29.64,WSW,243,0.0,0.0,60,0.00,CLR,,0.00,WeatherDisplay:10.37,2013-02-27 22:12:00,
2013-02-27 17:17:00,39.7,27.0,29.64,SSW,206,0.0,0.0,60,0.00,CLR,,0.00,WeatherDisplay:10.37,2013-02-27 22:17:00,
2013-02-27 17:22:00,39.7,27.0,29.64,SSW,206,0.0,0.0,60,0.00,CLR,,0.00,WeatherDisplay:10.37,2013-02-27 22:22:00,
2013-02-27 17:27:00,39.4,26.6,29.64,WSW,244,0.0,0.0,60,0.00,CLR,,0.00,WeatherDisplay:10.37,2013-02-27 22:27:00,
2013-02-27 17:32:00,38.3,25.6,29.64,SE,125,2.3,0.0,60,0.00,CLR,,0.00,WeatherDisplay:10.37,2013-02-27 22:32:00,
2013-02-27 17:37:00,37.9,26.1,29.64,WNW,297,0.0,0.0,62,0.00,CLR,,0.00,WeatherDisplay:10.37,2013-02-27 22:37:00,
2013-02-27 17:42:00,37.6,25.7,29.64,WNW,293,0.0,0.0,62,0.00,CLR,,0.00,WeatherDisplay:10.37,2013-02-27 22:42:00,
2013-02-27 17:47:00,37.4,26.3,29.64,WNW,293,0.0,0.0,64,0.00,CLR,,0.00,WeatherDisplay:10.37,2013-02-27 22:47:00,
2013-02-27 17:52:00,37.4,26.7,29.64,WNW,294,0.0,0.0,65,0.00,CLR,,0.00,WeatherDisplay:10.37,2013-02-27 22:52:00,
2013-02-27 17:57:00,37.4,27.4,29.64,WNW,294,0.0,0.0,67,0.00,CLR,,0.00,WeatherDisplay:10.37,2013-02-27 22:57:00,
2013-02-27 18:02:00,37.4,27.8,29.64,WSW,246,0.0,0.0,68,0.00,CLR,,0.00,WeatherDisplay:10.37,2013-02-27 23:02:00,
2013-02-27 18:07:00,37.2,28.0,29.64,WSW,246,0.0,0.0,69,0.00,CLR,,0.00,WeatherDisplay:10.37,2013-02-27 23:07:00,
2013-02-27 18:12:00,37.4,28.2,29.64,WSW,246,0.0,0.0,69,0.00,CLR,,0.00,WeatherDisplay:10.37,2013-02-27 23:12:00,
2013-02-27 18:17:00,37.2,28.3,29.64,WSW,246,0.0,0.0,70,0.00,CLR,,0.00,WeatherDisplay:10.37,2013-02-27 23:17:00,
2013-02-27 18:22:00,37.2,28.7,29.64,WSW,246,0.0,0.0,71,0.00,CLR,,0.00,WeatherDisplay:10.37,2013-02-27 23:22:00,
2013-02-27 18:27:00,37.2,28.7,29.64,WSW,246,0.0,0.0,71,0.00,CLR,,0.00,WeatherDisplay:10.37,2013-02-27 23:27:00,
2013-02-27 18:32:00,37.2,29.0,29.64,SSE,148,0.0,0.0,72,0.00,CLR,,0.00,WeatherDisplay:10.37,2013-02-27 23:32:00,
2013-02-27 18:37:00,37.2,29.0,29.67,SSE,148,0.0,0.0,72,0.00,CLR,,0.00,WeatherDisplay:10.37,2013-02-27 23:37:00,
2013-02-27 18:42:00,37.0,29.2,29.67,WNW,288,2.3,0.0,73,0.00,CLR,,0.00,WeatherDisplay:10.37,2013-02-27 23:42:00,
2013-02-27 18:47:00,37.0,29.2,29.67,WNW,284,0.0,0.0,73,0.00,CLR,,0.00,WeatherDisplay:10.37,2013-02-27 23:47:00,
2013-02-27 18:52:00,37.0,29.2,29.67,WNW,285,0.0,0.0,73,0.00,CLR,,0.00,WeatherDisplay:10.37,2013-02-27 23:52:00,
2013-02-27 18:57:00,37.0,29.5,29.67,WNW,284,0.0,0.0,74,0.00,CLR,,0.00,WeatherDisplay:10.37,2013-02-27 23:57:00,
2013-02-27 19:02:00,36.9,29.3,29.67,SE,138,0.0,0.0,74,0.00,CLR,,0.00,WeatherDisplay:10.37,2013-02-28 00:02:00,
2013-02-27 19:07:00,36.9,29.3,29.67,ENE,66,0.0,0.0,74,0.00,CLR,,0.00,WeatherDisplay:10.37,2013-02-28 00:07:00,
2013-02-27 19:12:00,36.9,29.7,29.67,East,96,0.0,0.0,75,0.00,CLR,,0.00,WeatherDisplay:10.37,2013-02-28 00:12:00,
2013-02-27 19:17:00,36.7,29.5,29.67,SW,228,0.0,0.0,75,0.00,CLR,,0.00,WeatherDisplay:10.37,2013-02-28 00:17:00,
2013-02-27 19:22:00,36.7,29.8,29.67,SW,228,0.0,0.0,76,0.00,CLR,,0.00,WeatherDisplay:10.37,2013-02-28 00:22:00,
2013-02-27 19:27:00,36.7,29.8,29.67,WSW,255,0.0,0.0,76,0.00,CLR,,0.00,WeatherDisplay:10.37,2013-02-28 00:27:00,
2013-02-27 19:32:00,36.7,29.8,29.67,WSW,255,0.0,0.0,76,0.00,CLR,,0.00,WeatherDisplay:10.37,2013-02-28 00:32:00,
2013-02-27 19:37:00,36.7,29.8,29.67,WSW,255,0.0,0.0,76,0.00,CLR,,0.00,WeatherDisplay:10.37,2013-02-28 00:37:00,
2013-02-27 19:42:00,36.7,30.1,29.67,West,261,0.0,0.0,77,0.00,CLR,,0.00,WeatherDisplay:10.37,2013-02-28 00:42:00,
2013-02-27 19:47:00,36.5,30.0,29.67,WSW,254,0.0,0.0,77,0.00,CLR,,0.00,WeatherDisplay:10.37,2013-02-28 00:47:00,
2013-02-27 19:52:00,36.5,30.3,29.67,WSW,254,0.0,0.0,78,0.00,CLR,,0.00,WeatherDisplay:10.37,2013-02-28 00:52:00,
2013-02-27 19:57:00,36.7,30.8,29.67,SW,231,0.0,0.0,79,0.00,CLR,,0.00,WeatherDisplay:10.37,2013-02-28 00:57:00,
2013-02-27 20:02:00,36.7,30.8,29.67,SW,231,0.0,0.0,79,0.00,CLR,,0.00,WeatherDisplay:10.37,2013-02-28 01:02:00,
2013-02-27 20:07:00,36.7,31.1,29.64,SW,231,0.0,0.0,80,0.00,CLR,,0.00,WeatherDisplay:10.37,2013-02-28 01:07:00,
2013-02-27 20:12:00,36.7,31.1,29.64,SW,231,0.0,0.0,80,0.00,CLR,,0.00,WeatherDisplay:10.37,2013-02-28 01:12:00,
2013-02-27 20:17:00,36.7,31.1,29.64,SW,231,0.0,0.0,80,0.00,CLR,,0.00,WeatherDisplay:10.37,2013-02-28 01:17:00,
2013-02-27 20:22:00,36.7,31.4,29.64,SW,231,0.0,0.0,81,0.00,CLR,,0.00,WeatherDisplay:10.37,2013-02-28 01:22:00,
2013-02-27 20:27:00,36.7,32.3,29.64,South,176,0.0,0.0,84,0.00,CLR,,0.00,WeatherDisplay:10.37,2013-02-28 01:27:00,
2013-02-27 20:32:00,36.7,32.3,29.64,WNW,285,3.1,0.0,84,0.00,CLR,,0.00,WeatherDisplay:10.37,2013-02-28 01:32:00,
2013-02-27 20:37:00,36.5,32.4,29.64,WNW,284,0.0,0.0,85,0.00,CLR,,0.00,WeatherDisplay:10.37,2013-02-28 01:37:00,
2013-02-27 20:42:00,36.5,32.7,29.64,ESE,104,2.3,0.0,86,0.00,CLR,,0.00,WeatherDisplay:10.37,2013-02-28 01:42:00,
2013-02-27 20:48:00,36.3,32.8,29.64,WSW,245,3.5,0.0,87,0.00,CLR,,0.00,WeatherDisplay:10.37,2013-02-28 01:48:00,
2013-02-27 20:53:00,36.0,31.9,29.67,South,171,0.0,0.0,85,0.00,CLR,,0.00,WeatherDisplay:10.37,2013-02-28 01:53:00,
2013-02-27 20:58:00,35.6,31.2,29.67,NW,313,3.5,0.0,84,0.00,CLR,,0.00,WeatherDisplay:10.37,2013-02-28 01:58:00,
2013-02-27 21:03:00,35.6,30.9,29.67,ENE,73,0.0,0.0,83,0.00,CLR,,0.00,WeatherDisplay:10.37,2013-02-28 02:03:00,
2013-02-27 21:08:00,35.4,30.8,29.67,ESE,115,0.0,0.0,83,0.00,CLR,,0.00,WeatherDisplay:10.37,2013-02-28 02:08:00,
2013-02-27 21:13:00,35.2,30.6,29.67,West,279,0.0,0.0,83,0.00,CLR,,0.00,WeatherDisplay:10.37,2013-02-28 02:13:00,
2013-02-27 21:18:00,35.1,30.4,29.67,West,260,0.0,0.0,83,0.00,CLR,,0.00,WeatherDisplay:10.37,2013-02-28 02:18:00,
2013-02-27 21:23:00,35.1,30.7,29.67,WSW,258,0.0,0.0,84,0.00,CLR,,0.00,WeatherDisplay:10.37,2013-02-28 02:23:00,
2013-02-27 21:28:00,34.9,30.2,29.67,SW,218,2.3,0.0,83,0.00,CLR,,0.00,WeatherDisplay:10.37,2013-02-28 02:28:00,
2013-02-27 21:33:00,34.9,30.2,29.67,NE,56,0.0,0.0,83,0.00,CLR,,0.00,WeatherDisplay:10.37,2013-02-28 02:33:00,
2013-02-27 21:38:00,34.7,30.4,29.67,SW,222,0.0,0.0,84,0.00,CLR,,0.00,WeatherDisplay:10.37,2013-02-28 02:38:00,
2013-02-27 21:43:00,34.5,29.9,29.67,North,0,0.0,0.0,83,0.00,CLR,,0.00,WeatherDisplay:10.37,2013-02-28 02:43:00,
2013-02-27 21:48:00,34.3,29.4,29.67,North,0,0.0,0.0,82,0.00,CLR,,0.00,WeatherDisplay:10.37,2013-02-28 02:48:00,
2013-02-27 21:53:00,34.2,28.9,29.67,North,0,0.0,0.0,81,0.00,CLR,,0.00,WeatherDisplay:10.37,2013-02-28 02:53:00,
2013-02-27 21:58:00,33.8,28.0,29.67,North,0,0.0,0.0,79,0.00,CLR,,0.00,WeatherDisplay:10.37,2013-02-28 02:58:00,
2013-02-27 22:03:00,33.6,27.5,29.67,North,0,0.0,0.0,78,0.00,CLR,,0.00,WeatherDisplay:10.37,2013-02-28 03:03:00,
2013-02-27 22:08:00,33.3,26.8,29.64,North,0,0.0,0.0,77,0.00,CLR,,0.00,WeatherDisplay:10.37,2013-02-28 03:08:00,
2013-02-27 22:13:00,33.3,27.1,29.64,North,0,0.0,0.0,78,0.00,CLR,,0.00,WeatherDisplay:10.37,2013-02-28 03:13:00,
2013-02-27 22:18:00,33.3,27.5,29.64,North,0,0.0,0.0,79,0.00,CLR,,0.00,WeatherDisplay:10.37,2013-02-28 03:18:00,
2013-02-27 22:23:00,33.4,28.5,29.64,North,1,0.0,0.0,82,0.00,CLR,,0.00,WeatherDisplay:10.37,2013-02-28 03:23:00,
2013-02-27 22:28:00,33.3,28.9,29.64,North,1,0.0,0.0,84,0.00,CLR,,0.00,WeatherDisplay:10.37,2013-02-28 03:28:00,
2013-02-27 22:33:00,33.4,29.4,29.64,North,1,0.0,0.0,85,0.00,CLR,,0.00,WeatherDisplay:10.37,2013-02-28 03:33:00,
2013-02-27 22:38:00,33.3,29.2,29.64,West,259,0.0,0.0,85,0.00,CLR,,0.00,WeatherDisplay:10.37,2013-02-28 03:38:00,
2013-02-27 22:43:00,33.3,29.5,29.64,West,259,0.0,0.0,86,0.00,CLR,,0.00,WeatherDisplay:10.37,2013-02-28 03:43:00,
2013-02-27 22:48:00,33.4,30.0,29.64,SSW,206,0.0,0.0,87,0.00,CLR,,0.00,WeatherDisplay:10.37,2013-02-28 03:48:00,
2013-02-27 22:53:00,33.4,30.3,29.64,SSW,206,0.0,0.0,88,0.00,CLR,,0.00,WeatherDisplay:10.37,2013-02-28 03:53:00,
2013-02-27 22:58:00,33.4,30.3,29.64,SSW,206,0.0,0.0,88,0.00,CLR,,0.00,WeatherDisplay:10.37,2013-02-28 03:58:00,
2013-02-27 23:03:00,33.3,30.1,29.64,SSW,206,0.0,0.0,88,0.00,CLR,,0.00,WeatherDisplay:10.37,2013-02-28 04:03:00,
2013-02-27 23:08:00,33.3,30.1,29.64,SSW,206,0.0,0.0,88,0.00,CLR,,0.00,WeatherDisplay:10.37,2013-02-28 04:08:00,
2013-02-27 23:13:00,33.3,30.4,29.64,SW,230,0.0,0.0,89,0.00,CLR,,0.00,WeatherDisplay:10.37,2013-02-28 04:13:00,
2013-02-27 23:18:00,33.3,30.1,29.64,ENE,68,0.0,0.0,88,0.00,CLR,,0.00,WeatherDisplay:10.37,2013-02-28 04:18:00,
2013-02-27 23:23:00,33.3,30.4,29.64,ENE,68,0.0,0.0,89,0.00,CLR,,0.00,WeatherDisplay:10.37,2013-02-28 04:23:00,
2013-02-27 23:28:00,33.3,30.6,29.64,ENE,68,0.0,0.0,90,0.00,CLR,,0.00,WeatherDisplay:10.37,2013-02-28 04:28:00,
2013-02-27 23:33:00,33.4,30.8,29.64,ENE,68,0.0,0.0,90,0.00,CLR,,0.00,WeatherDisplay:10.37,2013-02-28 04:33:00,
2013-02-27 23:38:00,33.4,30.8,29.64,ENE,68,0.0,0.0,90,0.00,CLR,,0.00,WeatherDisplay:10.37,2013-02-28 04:38:00,
2013-02-27 23:43:00,33.4,30.8,29.64,ENE,68,0.0,0.0,90,0.00,CLR,,0.00,WeatherDisplay:10.37,2013-02-28 04:43:00,
2013-02-27 23:48:00,33.3,30.6,29.64,ENE,68,0.0,0.0,90,0.00,CLR,,0.00,WeatherDisplay:10.37,2013-02-28 04:48:00,
2013-02-27 23:53:00,33.3,30.9,29.61,ENE,68,0.0,0.0,91,0.00,CLR,,0.00,WeatherDisplay:10.37,2013-02-28 04:53:00,
2013-02-27 23:58:00,33.3,30.9,29.61,ENE,68,0.0,0.0,91,0.00,CLR,,0.00,WeatherDisplay:10.37,2013-02-28 04:58:00,